Weather History for KEGI - January, 2014

Change the Weather History Date:

Monday, January 27, 2014

  Actual Average Record
Temperature  
Mean Temperature 58 °F -  
Max Temperature 66 °F - - ()
Min Temperature 49 °F - - ()
Degree Days  
Heating Degree Days 8    
Growing Degree Days 8 (Base 50)    
Moisture  
Dew Point 56 °F    
Average Humidity 92    
Maximum Humidity 100    
Minimum Humidity 58    
Precipitation  
Precipitation 0.04 in - - ()
Sea Level Pressure  
Sea Level Pressure 29.95 in    
Wind  
Wind Speed 7 mph (WSW)    
Max Wind Speed 14 mph    
Max Gust Speed 20 mph    
Visibility 10 miles    
Events Rain    
T = Trace of Precipitation, MM = Missing Value Source: NWS Daily Summary

Daily Weather History Graph

Daily Weather History Graph

Search for Another Location

Airport or City:

Trip Planner

Search our weather history database for the weather conditions in past years. The results will help you decide how hot, cold, wet, or windy it might be!

Date:

Astronomy

Jan. 27, 2014 Rise Set
Actual Time 6:40 AM CST 5:17 PM CST
Civil Twilight 6:14 AM CST 5:43 PM CST
Nautical Twilight 5:45 AM CST 6:12 PM CST
Astronomical Twilight 5:17 AM CST 6:41 PM CST
Moon 3:18 AM CST (1/27) 2:06 PM CST (1/27)
Length of Visible Light 11h 28m
Length of Day
10h 37m
Waning Crescent, 14% of the Moon is Illuminated
Jan 27
Waning Crescent
Jan 30
New
Feb 6
First Quarter
Feb 14
Full
Feb 22
Last Quarter

Hourly Weather History & Observations

Time (CST) Temp. Dew Point Humidity Pressure Visibility Wind Dir Wind Speed Gust Speed Precip Events Conditions
12:58 AM 49.5 °F 49.1 °F 99% 29.94 in 10.0 mi South 5.8 mph - N/A   Mostly Cloudy
1:58 AM 51.8 °F 51.1 °F 97% 29.94 in 10.0 mi South 5.8 mph - N/A   Mostly Cloudy
2:58 AM 52.7 °F 51.8 °F 97% 29.92 in 10.0 mi SW 4.6 mph - 0.00 in Rain Light Rain
3:09 AM 53.6 °F 51.8 °F 94% 29.93 in 10.0 mi Variable 1.2 mph - N/A   Scattered Clouds
3:58 AM 52.7 °F 52.5 °F 99% 29.93 in 10.0 mi South 4.6 mph - 0.00 in   Scattered Clouds
4:58 AM 50.5 °F 50.2 °F 99% 29.94 in 10.0 mi South 4.6 mph - N/A   Mostly Cloudy
5:58 AM 50.7 °F 50.5 °F 99% 29.93 in 10.0 mi South 5.8 mph - N/A   Mostly Cloudy
6:58 AM 52.0 °F 51.8 °F 99% 29.96 in 10.0 mi South 3.5 mph - N/A   Mostly Cloudy
7:58 AM 56.5 °F 56.5 °F 100% 29.96 in 10.0 mi South 4.6 mph - N/A   Partly Cloudy
8:55 AM 59.2 °F 58.3 °F 97% 29.96 in 10.0 mi South 6.9 mph - N/A   Mostly Cloudy
9:55 AM 64.6 °F 57.4 °F 77% 29.96 in 10.0 mi South 9.2 mph - N/A   Mostly Cloudy
10:30 AM 66.2 °F 57.2 °F 73% 29.96 in 10.0 mi SSW 10.4 mph - N/A Rain Light Rain
10:55 AM 65.7 °F 57.4 °F 75% 29.96 in 10.0 mi SSW 11.5 mph - 0.00 in Rain Light Rain
11:05 AM 66.2 °F 57.2 °F 73% 29.96 in 10.0 mi South 13.8 mph - N/A   Mostly Cloudy
11:18 AM 66.2 °F 57.2 °F 73% 29.95 in 10.0 mi SSW 13.8 mph - N/A   Light Drizzle
11:32 AM 64.4 °F 59.0 °F 83% 29.95 in 6.0 mi SSW 12.7 mph - N/A Rain Light Rain
11:55 AM 64.0 °F 61.7 °F 92% 29.94 in 10.0 mi SSW 10.4 mph - 0.01 in Rain Light Rain
12:55 PM 63.7 °F 62.6 °F 96% 29.91 in 6.0 mi SSW 6.9 mph - 0.02 in Rain Light Rain
1:22 PM 64.4 °F 64.4 °F 100% 29.90 in 10.0 mi South 8.1 mph - N/A   Overcast
1:35 PM 64.4 °F 64.4 °F 100% 29.90 in 10.0 mi SSW 4.6 mph - N/A   Overcast
1:49 PM 60.8 °F 59.0 °F 94% 29.90 in 10.0 mi NNE 13.8 mph 19.6 mph N/A   Overcast
1:51 PM 60.8 °F 59.0 °F 94% 29.91 in 10.0 mi NNE 12.7 mph 19.6 mph N/A Rain Light Rain
1:55 PM 60.3 °F 59.2 °F 96% 29.91 in 10.0 mi North 10.4 mph - 0.01 in Rain Light Rain
2:20 PM 59.0 °F 59.0 °F 100% 29.91 in 10.0 mi NE 4.6 mph - N/A   Overcast
2:55 PM 59.9 °F 59.5 °F 99% 29.92 in 10.0 mi North 6.9 mph - 0.00 in   Overcast
3:40 PM 59.0 °F 59.0 °F 100% 29.92 in 10.0 mi North 5.8 mph - N/A   Overcast
3:55 PM 59.7 °F 59.4 °F 99% 29.92 in 10.0 mi North 5.8 mph - N/A   Overcast
4:24 PM 59.0 °F 59.0 °F 100% 29.93 in 10.0 mi North 3.5 mph - N/A   Overcast
4:55 PM 59.5 °F 58.8 °F 97% 29.95 in 10.0 mi North 8.1 mph - N/A   Overcast
5:45 PM 59.0 °F 57.2 °F 94% 29.94 in 10.0 mi North 6.9 mph - N/A   Overcast
5:55 PM 58.3 °F 56.8 °F 95% 29.95 in 10.0 mi NNE 6.9 mph - N/A   Overcast
6:42 PM 57.2 °F 57.2 °F 100% 29.99 in 10.0 mi North 5.8 mph - N/A   Overcast
6:55 PM 57.6 °F 56.5 °F 96% 30.01 in 10.0 mi NNW 4.6 mph - N/A   Overcast
7:55 PM 56.8 °F 56.3 °F 98% 29.99 in 10.0 mi North 3.5 mph - N/A   Overcast
8:55 PM 56.3 °F 55.9 °F 99% 30.00 in 10.0 mi NNW 4.6 mph - N/A   Overcast
9:55 PM 53.8 °F 47.8 °F 80% 30.03 in 10.0 mi North 11.5 mph - N/A   Mostly Cloudy
10:56 PM 50.5 °F 36.3 °F 58% 30.05 in 10.0 mi North 9.2 mph - N/A   Mostly Cloudy
11:55 PM 50.5 °F 36.3 °F 58% 30.04 in 10.0 mi North 11.5 mph - N/A   Mostly Cloudy